Time,TemperatureF,DewpointF,PressureIn,WindDirection,WindDirectionDegrees,WindSpeedMPH,WindSpeedGustMPH,Humidity,HourlyPrecipIn,Conditions,Clouds,dailyrainin,SoftwareType,DateUTC
2013-03-24 00:00:00,29.3,21.7,30.04,NW,325,0.0,0.0,73,0.00,,,0.00,Wunderground v.1.15,2013-03-24 04:00:00,
2013-03-24 00:02:00,29.4,22.1,30.04,NW,325,0.0,0.0,74,0.00,,,0.00,Wunderground v.1.15,2013-03-24 04:02:00,
2013-03-24 00:03:00,29.3,21.7,30.04,NW,325,0.0,0.0,73,0.00,,,0.00,Wunderground v.1.15,2013-03-24 04:03:00,
2013-03-24 00:08:00,29.4,21.8,30.04,ESE,113,0.0,1.0,73,0.00,,,0.00,Wunderground v.1.15,2013-03-24 04:08:00,
2013-03-24 00:13:00,29.5,21.9,30.04,ESE,111,0.0,0.0,73,0.00,,,0.00,Wunderground v.1.15,2013-03-24 04:13:00,
2013-03-24 00:18:00,29.6,21.7,30.04,ESE,111,0.0,0.0,72,0.00,,,0.00,Wunderground v.1.15,2013-03-24 04:18:00,
2013-03-24 00:24:00,29.8,21.9,30.03,East,97,0.0,0.0,72,0.00,,,0.00,Wunderground v.1.15,2013-03-24 04:24:00,
2013-03-24 00:29:00,30.1,21.8,30.03,NNE,20,0.0,0.0,71,0.00,,,0.00,Wunderground v.1.15,2013-03-24 04:29:00,
2013-03-24 00:34:00,30.3,21.7,30.02,ENE,69,0.0,0.0,70,0.00,,,0.00,Wunderground v.1.15,2013-03-24 04:34:00,
2013-03-24 00:39:00,30.6,21.6,30.02,NNW,332,0.0,2.0,69,0.00,,,0.00,Wunderground v.1.15,2013-03-24 04:39:00,
2013-03-24 00:44:00,30.8,21.8,30.02,SE,146,0.0,1.0,69,0.00,,,0.00,Wunderground v.1.15,2013-03-24 04:44:00,
2013-03-24 00:50:00,30.8,21.8,30.02,East,86,0.0,1.0,69,0.00,,,0.00,Wunderground v.1.15,2013-03-24 04:50:00,
2013-03-24 00:55:00,30.8,21.8,30.01,ESE,111,0.0,5.0,69,0.00,,,0.00,Wunderground v.1.15,2013-03-24 04:55:00,
2013-03-24 01:01:00,30.7,21.7,30.01,SE,130,0.0,0.0,69,0.00,,,0.00,Wunderground v.1.15,2013-03-24 05:01:00,
2013-03-24 01:07:00,30.5,21.5,30.01,SSE,153,0.0,1.0,69,0.00,,,0.00,Wunderground v.1.15,2013-03-24 05:07:00,
2013-03-24 01:12:00,30.5,21.5,30.03,NW,325,0.0,0.0,69,0.00,,,0.00,Wunderground v.1.15,2013-03-24 05:12:00,
2013-03-24 01:18:00,30.5,21.5,30.03,ESE,123,0.0,0.0,69,0.00,,,0.00,Wunderground v.1.15,2013-03-24 05:18:00,
2013-03-24 01:24:00,30.4,21.8,30.03,SE,124,0.0,0.0,70,0.00,,,0.00,Wunderground v.1.15,2013-03-24 05:24:00,
2013-03-24 01:29:00,30.2,21.6,30.02,NE,42,0.0,0.0,70,0.00,,,0.00,Wunderground v.1.15,2013-03-24 05:29:00,
2013-03-24 01:34:00,30.1,21.5,30.02,ENE,76,0.0,0.0,70,0.00,,,0.00,Wunderground v.1.15,2013-03-24 05:34:00,
2013-03-24 01:40:00,30.1,21.5,30.02,NNE,12,0.0,0.0,70,0.00,,,0.00,Wunderground v.1.15,2013-03-24 05:40:00,
2013-03-24 01:45:00,30.0,21.4,30.02,ENE,64,0.0,0.0,70,0.00,,,0.00,Wunderground v.1.15,2013-03-24 05:45:00,
2013-03-24 01:51:00,29.9,21.6,30.02,ENE,64,0.0,0.0,71,0.00,,,0.00,Wunderground v.1.15,2013-03-24 05:51:00,
2013-03-24 01:57:00,29.7,21.4,30.02,ENE,64,0.0,0.0,71,0.00,,,0.00,Wunderground v.1.15,2013-03-24 05:57:00,
2013-03-24 02:02:00,29.4,21.5,30.02,ENE,64,0.0,0.0,72,0.00,,,0.00,Wunderground v.1.15,2013-03-24 06:02:00,
2013-03-24 02:08:00,29.2,21.3,30.02,ENE,68,0.0,0.0,72,0.00,,,0.00,Wunderground v.1.15,2013-03-24 06:08:00,
2013-03-24 02:13:00,29.0,21.4,30.02,WNW,288,0.0,1.0,73,0.00,,,0.00,Wunderground v.1.15,2013-03-24 06:13:00,
2013-03-24 02:19:00,29.0,21.4,30.03,WNW,288,0.0,1.0,73,0.00,,,0.00,Wunderground v.1.15,2013-03-24 06:19:00,
2013-03-24 02:24:00,28.8,21.2,30.02,WNW,288,0.0,0.0,73,0.00,,,0.00,Wunderground v.1.15,2013-03-24 06:24:00,
2013-03-24 02:29:00,28.5,21.3,30.02,WNW,288,0.0,0.0,74,0.00,,,0.00,Wunderground v.1.15,2013-03-24 06:29:00,
2013-03-24 02:35:00,28.3,21.4,30.02,East,96,0.0,0.0,75,0.00,,,0.00,Wunderground v.1.15,2013-03-24 06:35:00,
2013-03-24 02:40:00,28.3,21.4,30.02,East,98,0.0,0.0,75,0.00,,,0.00,Wunderground v.1.15,2013-03-24 06:40:00,
2013-03-24 02:47:00,28.3,21.1,30.03,East,98,0.0,0.0,74,0.00,,,0.00,Wunderground v.1.15,2013-03-24 06:47:00,
2013-03-24 02:53:00,28.0,21.1,30.02,East,98,0.0,0.0,75,0.00,,,0.00,Wunderground v.1.15,2013-03-24 06:53:00,
2013-03-24 02:59:00,27.8,21.2,30.01,East,98,0.0,0.0,76,0.00,,,0.00,Wunderground v.1.15,2013-03-24 06:59:00,
2013-03-24 03:05:00,27.4,21.1,30.01,East,98,0.0,0.0,77,0.00,,,0.00,Wunderground v.1.15,2013-03-24 07:05:00,
2013-03-24 03:10:00,27.2,20.9,30.01,East,98,0.0,0.0,77,0.00,,,0.00,Wunderground v.1.15,2013-03-24 07:10:00,
2013-03-24 03:16:00,27.2,20.9,30.01,East,98,0.0,0.0,77,0.00,,,0.00,Wunderground v.1.15,2013-03-24 07:16:00,
2013-03-24 03:22:00,27.1,20.8,30.00,East,98,0.0,0.0,77,0.00,,,0.00,Wunderground v.1.15,2013-03-24 07:22:00,
2013-03-24 03:28:00,27.0,21.1,30.00,East,98,0.0,0.0,78,0.00,,,0.00,Wunderground v.1.15,2013-03-24 07:28:00,
2013-03-24 03:33:00,26.8,21.2,30.00,East,98,0.0,0.0,79,0.00,,,0.00,Wunderground v.1.15,2013-03-24 07:33:00,
2013-03-24 03:39:00,26.5,21.2,30.00,East,98,0.0,0.0,80,0.00,,,0.00,Wunderground v.1.15,2013-03-24 07:39:00,
2013-03-24 03:44:00,26.4,21.1,30.00,East,98,0.0,0.0,80,0.00,,,0.00,Wunderground v.1.15,2013-03-24 07:44:00,
2013-03-24 03:49:00,26.5,21.2,30.00,East,98,0.0,0.0,80,0.00,,,0.00,Wunderground v.1.15,2013-03-24 07:49:00,
2013-03-24 03:55:00,26.5,21.2,30.00,East,98,0.0,0.0,80,0.00,,,0.00,Wunderground v.1.15,2013-03-24 07:55:00,
2013-03-24 04:00:00,26.5,21.5,30.00,East,98,0.0,0.0,81,0.00,,,0.00,Wunderground v.1.15,2013-03-24 08:00:00,
2013-03-24 04:07:00,26.6,21.6,30.00,East,98,0.0,0.0,81,0.00,,,0.00,Wunderground v.1.15,2013-03-24 08:07:00,
2013-03-24 04:13:00,26.6,21.3,30.00,East,98,0.0,0.0,80,0.00,,,0.00,Wunderground v.1.15,2013-03-24 08:13:00,
2013-03-24 04:18:00,26.8,21.2,30.00,East,98,0.0,0.0,79,0.00,,,0.00,Wunderground v.1.15,2013-03-24 08:18:00,
2013-03-24 04:24:00,26.9,21.3,30.01,East,98,0.0,0.0,79,0.00,,,0.00,Wunderground v.1.15,2013-03-24 08:24:00,
2013-03-24 04:29:00,27.1,21.2,30.02,East,98,0.0,0.0,78,0.00,,,0.00,Wunderground v.1.15,2013-03-24 08:29:00,
2013-03-24 04:35:00,27.2,21.2,30.02,East,98,0.0,0.0,78,0.00,,,0.00,Wunderground v.1.15,2013-03-24 08:35:00,
2013-03-24 04:40:00,27.1,21.5,30.01,East,98,0.0,0.0,79,0.00,,,0.00,Wunderground v.1.15,2013-03-24 08:40:00,
2013-03-24 04:45:00,27.0,21.4,30.01,East,98,0.0,0.0,79,0.00,,,0.00,Wunderground v.1.15,2013-03-24 08:45:00,
2013-03-24 04:50:00,26.9,21.3,30.01,East,98,0.0,0.0,79,0.00,,,0.00,Wunderground v.1.15,2013-03-24 08:50:00,
2013-03-24 04:56:00,26.7,21.4,30.01,East,98,0.0,0.0,80,0.00,,,0.00,Wunderground v.1.15,2013-03-24 08:56:00,
2013-03-24 05:01:00,26.6,21.3,30.01,East,98,0.0,0.0,80,0.00,,,0.00,Wunderground v.1.15,2013-03-24 09:01:00,
2013-03-24 05:06:00,26.6,21.3,30.00,East,96,0.0,0.0,80,0.00,,,0.00,Wunderground v.1.15,2013-03-24 09:06:00,
2013-03-24 05:12:00,26.7,21.4,30.00,East,96,0.0,0.0,80,0.00,,,0.00,Wunderground v.1.15,2013-03-24 09:12:00,
2013-03-24 05:17:00,26.7,21.4,30.00,East,96,0.0,0.0,80,0.00,,,0.00,Wunderground v.1.15,2013-03-24 09:17:00,
2013-03-24 05:23:00,26.5,21.2,30.00,East,96,0.0,0.0,80,0.00,,,0.00,Wunderground v.1.15,2013-03-24 09:23:00,
2013-03-24 05:29:00,26.4,21.4,30.00,East,96,0.0,0.0,81,0.00,,,0.00,Wunderground v.1.15,2013-03-24 09:29:00,
2013-03-24 05:34:00,26.3,21.3,30.00,East,96,0.0,0.0,81,0.00,,,0.00,Wunderground v.1.15,2013-03-24 09:34:00,
2013-03-24 05:40:00,26.2,21.2,30.00,East,96,0.0,0.0,81,0.00,,,0.00,Wunderground v.1.15,2013-03-24 09:40:00,
2013-03-24 05:45:00,26.1,21.1,30.00,East,96,0.0,0.0,81,0.00,,,0.00,Wunderground v.1.15,2013-03-24 09:45:00,
2013-03-24 05:50:00,26.3,21.3,29.99,NE,34,0.0,0.0,81,0.00,,,0.00,Wunderground v.1.15,2013-03-24 09:50:00,
2013-03-24 05:55:00,26.5,21.2,29.99,NE,34,0.0,0.0,80,0.00,,,0.00,Wunderground v.1.15,2013-03-24 09:55:00,
2013-03-24 06:00:00,26.7,21.4,29.99,NE,34,0.0,0.0,80,0.00,,,0.00,Wunderground v.1.15,2013-03-24 10:00:00,
2013-03-24 06:06:00,26.9,21.3,29.99,NE,34,0.0,0.0,79,0.00,,,0.00,Wunderground v.1.15,2013-03-24 10:06:00,
2013-03-24 06:12:00,26.8,21.2,30.00,NE,34,0.0,0.0,79,0.00,,,0.00,Wunderground v.1.15,2013-03-24 10:12:00,
2013-03-24 06:17:00,26.7,21.1,30.00,East,98,0.0,0.0,79,0.00,,,0.00,Wunderground v.1.15,2013-03-24 10:17:00,
2013-03-24 06:23:00,26.7,21.1,29.99,East,97,0.0,0.0,79,0.00,,,0.00,Wunderground v.1.15,2013-03-24 10:23:00,
2013-03-24 06:28:00,26.7,21.4,29.99,East,97,0.0,0.0,80,0.00,,,0.00,Wunderground v.1.15,2013-03-24 10:28:00,
2013-03-24 06:34:00,26.7,21.4,29.99,East,97,0.0,0.0,80,0.00,,,0.00,Wunderground v.1.15,2013-03-24 10:34:00,
2013-03-24 06:39:00,26.7,21.4,29.99,East,95,0.0,0.0,80,0.00,,,0.00,Wunderground v.1.15,2013-03-24 10:39:00,
2013-03-24 06:45:00,26.6,21.3,29.99,East,95,0.0,0.0,80,0.00,,,0.00,Wunderground v.1.15,2013-03-24 10:45:00,
2013-03-24 06:51:00,26.5,21.2,29.99,East,95,0.0,0.0,80,0.00,,,0.00,Wunderground v.1.15,2013-03-24 10:51:00,
2013-03-24 06:57:00,26.4,21.4,30.00,East,95,0.0,0.0,81,0.00,,,0.00,Wunderground v.1.15,2013-03-24 10:57:00,
2013-03-24 07:02:00,26.3,21.3,29.99,East,95,0.0,0.0,81,0.00,,,0.00,Wunderground v.1.15,2013-03-24 11:02:00,
2013-03-24 07:08:00,26.2,21.2,29.99,East,95,0.0,0.0,81,0.00,,,0.00,Wunderground v.1.15,2013-03-24 11:08:00,
2013-03-24 07:13:00,26.3,21.3,30.00,East,95,0.0,0.0,81,0.00,,,0.00,Wunderground v.1.15,2013-03-24 11:13:00,
2013-03-24 07:19:00,26.3,21.3,29.99,East,95,0.0,0.0,81,0.00,,,0.00,Wunderground v.1.15,2013-03-24 11:19:00,
2013-03-24 07:24:00,26.4,21.4,29.99,East,95,0.0,0.0,81,0.00,,,0.00,Wunderground v.1.15,2013-03-24 11:24:00,
2013-03-24 07:30:00,26.5,21.5,29.99,East,95,0.0,0.0,81,0.00,,,0.00,Wunderground v.1.15,2013-03-24 11:30:00,
2013-03-24 07:35:00,26.6,21.6,29.98,NE,49,0.0,0.0,81,0.00,,,0.00,Wunderground v.1.15,2013-03-24 11:35:00,
2013-03-24 07:40:00,26.7,21.7,29.98,NE,51,0.0,0.0,81,0.00,,,0.00,Wunderground v.1.15,2013-03-24 11:40:00,
2013-03-24 07:45:00,26.9,21.8,29.98,NNW,339,0.0,0.0,81,0.00,,,0.00,Wunderground v.1.15,2013-03-24 11:45:00,
2013-03-24 07:52:00,27.2,21.8,29.98,ENE,63,0.0,0.0,80,0.00,,,0.00,Wunderground v.1.15,2013-03-24 11:52:00,
2013-03-24 07:57:00,27.4,22.0,29.98,East,80,0.0,1.0,80,0.00,,,0.00,Wunderground v.1.15,2013-03-24 11:57:00,
2013-03-24 08:03:00,27.6,22.2,29.98,ENE,74,0.0,0.0,80,0.00,,,0.00,Wunderground v.1.15,2013-03-24 12:03:00,
2013-03-24 08:08:00,27.8,22.1,29.98,ESE,109,0.0,0.0,79,0.00,,,0.00,Wunderground v.1.15,2013-03-24 12:08:00,
2013-03-24 08:13:00,27.9,22.2,29.98,ESE,117,0.0,0.0,79,0.00,,,0.00,Wunderground v.1.15,2013-03-24 12:13:00,
2013-03-24 08:19:00,28.2,22.5,29.98,NNE,13,0.0,0.0,79,0.00,,,0.00,Wunderground v.1.15,2013-03-24 12:19:00,
2013-03-24 08:25:00,28.5,22.8,29.97,NNE,13,0.0,0.0,79,0.00,,,0.00,Wunderground v.1.15,2013-03-24 12:25:00,
2013-03-24 08:30:00,28.8,22.8,29.97,East,95,0.0,0.0,78,0.00,,,0.00,Wunderground v.1.15,2013-03-24 12:30:00,
2013-03-24 08:35:00,29.1,22.8,29.96,SE,134,0.0,2.0,77,0.00,,,0.00,Wunderground v.1.15,2013-03-24 12:35:00,
2013-03-24 08:40:00,29.4,23.1,29.96,NNE,28,0.0,0.0,77,0.00,,,0.00,Wunderground v.1.15,2013-03-24 12:40:00,
2013-03-24 08:45:00,29.6,23.0,29.96,SE,125,0.0,1.0,76,0.00,,,0.00,Wunderground v.1.15,2013-03-24 12:45:00,
2013-03-24 08:51:00,29.9,23.3,29.96,ESE,108,0.0,3.0,76,0.00,,,0.00,Wunderground v.1.15,2013-03-24 12:51:00,
2013-03-24 08:56:00,30.1,23.4,29.95,ENE,65,0.0,3.0,76,0.00,,,0.00,Wunderground v.1.15,2013-03-24 12:56:00,
2013-03-24 09:02:00,30.3,23.3,29.95,East,84,0.0,1.0,75,0.00,,,0.00,Wunderground v.1.15,2013-03-24 13:02:00,
2013-03-24 09:08:00,30.4,23.4,29.95,North,10,1.0,4.0,75,0.00,,,0.00,Wunderground v.1.15,2013-03-24 13:08:00,
2013-03-24 09:13:00,30.5,23.2,29.94,ENE,61,1.0,1.0,74,0.00,,,0.00,Wunderground v.1.15,2013-03-24 13:13:00,
2013-03-24 09:18:00,30.7,23.4,29.94,ENE,63,0.0,2.0,74,0.00,,,0.00,Wunderground v.1.15,2013-03-24 13:18:00,
2013-03-24 09:24:00,31.0,23.7,29.94,SE,132,0.0,3.0,74,0.00,,,0.00,Wunderground v.1.15,2013-03-24 13:24:00,
2013-03-24 09:29:00,31.1,23.5,29.94,SE,144,0.0,3.0,73,0.00,,,0.00,Wunderground v.1.15,2013-03-24 13:29:00,
2013-03-24 09:34:00,31.3,23.6,29.93,SW,234,1.0,2.0,73,0.00,,,0.00,Wunderground v.1.15,2013-03-24 13:34:00,
2013-03-24 09:40:00,31.5,23.5,29.93,SE,136,0.0,1.0,72,0.00,,,0.00,Wunderground v.1.15,2013-03-24 13:40:00,
2013-03-24 09:46:00,31.8,23.8,29.93,NNE,22,0.0,4.0,72,0.00,,,0.00,Wunderground v.1.15,2013-03-24 13:46:00,
2013-03-24 09:52:00,32.0,23.7,29.93,ESE,113,1.0,1.0,71,0.00,,,0.00,Wunderground v.1.15,2013-03-24 13:52:00,
2013-03-24 09:58:00,32.4,24.4,29.93,ESE,114,0.0,1.0,72,0.00,,,0.00,Wunderground v.1.15,2013-03-24 13:58:00,
2013-03-24 10:03:00,32.8,24.1,29.93,ESE,115,0.0,1.0,70,0.00,,,0.00,Wunderground v.1.15,2013-03-24 14:03:00,
2013-03-24 10:09:00,33.0,23.9,29.92,SE,133,1.0,2.0,69,0.00,,,0.00,Wunderground v.1.15,2013-03-24 14:09:00,
2013-03-24 10:14:00,33.4,24.0,29.91,NE,40,1.0,2.0,68,0.00,,,0.00,Wunderground v.1.15,2013-03-24 14:14:00,
2013-03-24 10:19:00,33.7,23.9,29.90,NE,45,2.0,3.0,67,0.00,,,0.00,Wunderground v.1.15,2013-03-24 14:19:00,
2013-03-24 10:25:00,33.8,24.0,29.90,SE,136,3.0,3.0,67,0.00,,,0.00,Wunderground v.1.15,2013-03-24 14:25:00,
2013-03-24 10:30:00,33.9,23.7,29.89,NW,321,2.0,2.0,66,0.00,,,0.00,Wunderground v.1.15,2013-03-24 14:30:00,
2013-03-24 10:35:00,34.1,23.9,29.88,ESE,104,2.0,10.0,66,0.00,,,0.00,Wunderground v.1.15,2013-03-24 14:35:00,
2013-03-24 10:40:00,34.5,24.3,29.88,SE,134,2.0,3.0,66,0.00,,,0.00,Wunderground v.1.15,2013-03-24 14:40:00,
2013-03-24 10:47:00,34.8,24.2,29.88,NNE,20,2.0,5.0,65,0.00,,,0.00,Wunderground v.1.15,2013-03-24 14:47:00,
2013-03-24 10:52:00,35.2,24.2,29.87,SE,132,1.0,1.0,64,0.00,,,0.00,Wunderground v.1.15,2013-03-24 14:52:00,
2013-03-24 10:58:00,35.5,24.1,29.87,SSE,162,1.0,2.0,63,0.00,,,0.00,Wunderground v.1.15,2013-03-24 14:58:00,
2013-03-24 11:03:00,35.5,23.8,29.85,NNE,19,2.0,3.0,62,0.00,,,0.00,Wunderground v.1.15,2013-03-24 15:03:00,
2013-03-24 11:09:00,35.5,23.4,29.85,North,5,2.0,5.0,61,0.00,,,0.00,Wunderground v.1.15,2013-03-24 15:09:00,
2013-03-24 11:14:00,35.6,23.1,29.85,SE,126,2.0,4.0,60,0.00,,,0.00,Wunderground v.1.15,2013-03-24 15:14:00,
2013-03-24 11:20:00,36.1,23.9,29.85,NNE,26,1.0,1.0,61,0.00,,,0.00,Wunderground v.1.15,2013-03-24 15:20:00,
2013-03-24 11:25:00,36.4,23.8,29.84,NE,36,1.0,2.0,60,0.00,,,0.00,Wunderground v.1.15,2013-03-24 15:25:00,
2013-03-24 11:32:00,36.6,23.6,29.84,ENE,76,1.0,1.0,59,0.00,,,0.00,Wunderground v.1.15,2013-03-24 15:32:00,
2013-03-24 11:37:00,37.0,24.0,29.83,ENE,69,1.0,3.0,59,0.00,,,0.00,Wunderground v.1.15,2013-03-24 15:37:00,
2013-03-24 11:43:00,37.1,24.1,29.83,NNE,24,1.0,2.0,59,0.00,,,0.00,Wunderground v.1.15,2013-03-24 15:43:00,
2013-03-24 11:48:00,37.2,23.8,29.83,East,90,1.0,4.0,58,0.00,,,0.00,Wunderground v.1.15,2013-03-24 15:48:00,
2013-03-24 11:53:00,37.4,24.0,29.83,NNE,31,1.0,3.0,58,0.00,,,0.00,Wunderground v.1.15,2013-03-24 15:53:00,
2013-03-24 11:59:00,37.6,23.7,29.83,East,83,1.0,5.0,57,0.00,,,0.00,Wunderground v.1.15,2013-03-24 15:59:00,
2013-03-24 12:04:00,37.7,23.4,29.82,WNW,287,2.0,5.0,56,0.00,,,0.00,Wunderground v.1.15,2013-03-24 16:04:00,
2013-03-24 12:10:00,37.8,23.9,29.82,ESE,119,2.0,3.0,57,0.00,,,0.00,Wunderground v.1.15,2013-03-24 16:10:00,
2013-03-24 12:15:00,38.0,24.5,29.82,East,81,2.0,6.0,58,0.00,,,0.00,Wunderground v.1.15,2013-03-24 16:15:00,
2013-03-24 12:21:00,38.2,24.3,29.81,East,97,2.0,3.0,57,0.00,,,0.00,Wunderground v.1.15,2013-03-24 16:21:00,
2013-03-24 12:27:00,38.3,24.4,29.81,SE,146,1.0,3.0,57,0.00,,,0.00,Wunderground v.1.15,2013-03-24 16:27:00,
2013-03-24 12:32:00,38.4,24.9,29.81,SE,131,2.0,3.0,58,0.00,,,0.00,Wunderground v.1.15,2013-03-24 16:32:00,
2013-03-24 12:38:00,38.4,24.5,29.80,NNE,23,3.0,5.0,57,0.00,,,0.00,Wunderground v.1.15,2013-03-24 16:38:00,
2013-03-24 12:43:00,38.5,24.6,29.79,SE,130,2.0,4.0,57,0.00,,,0.00,Wunderground v.1.15,2013-03-24 16:43:00,
2013-03-24 12:48:00,38.7,24.8,29.78,ESE,121,1.0,4.0,57,0.00,,,0.00,Wunderground v.1.15,2013-03-24 16:48:00,
2013-03-24 12:54:00,38.8,24.0,29.78,NE,55,2.0,3.0,55,0.00,,,0.00,Wunderground v.1.15,2013-03-24 16:54:00,
2013-03-24 12:59:00,38.9,23.7,29.77,ESE,113,2.0,4.0,54,0.00,,,0.00,Wunderground v.1.15,2013-03-24 16:59:00,
2013-03-24 13:05:00,38.9,23.2,29.77,NNE,31,2.0,6.0,53,0.00,,,0.00,Wunderground v.1.15,2013-03-24 17:05:00,
2013-03-24 13:10:00,39.1,23.4,29.77,WNW,294,2.0,4.0,53,0.00,,,0.00,Wunderground v.1.15,2013-03-24 17:10:00,
2013-03-24 13:15:00,39.2,23.9,29.76,NNE,18,2.0,5.0,54,0.00,,,0.00,Wunderground v.1.15,2013-03-24 17:15:00,
2013-03-24 13:20:00,39.4,24.1,29.76,NE,36,2.0,2.0,54,0.00,,,0.00,Wunderground v.1.15,2013-03-24 17:20:00,
2013-03-24 13:26:00,39.6,24.7,29.76,ESE,105,1.0,3.0,55,0.00,,,0.00,Wunderground v.1.15,2013-03-24 17:26:00,
2013-03-24 13:32:00,40.0,24.7,29.76,ENE,61,1.0,1.0,54,0.00,,,0.00,Wunderground v.1.15,2013-03-24 17:32:00,
2013-03-24 13:37:00,40.3,24.1,29.76,NNE,33,1.0,5.0,52,0.00,,,0.00,Wunderground v.1.15,2013-03-24 17:37:00,
2013-03-24 13:43:00,40.4,24.6,29.76,ESE,121,2.0,2.0,53,0.00,,,0.00,Wunderground v.1.15,2013-03-24 17:43:00,
2013-03-24 13:48:00,40.7,24.4,29.75,SE,143,1.0,5.0,52,0.00,,,0.00,Wunderground v.1.15,2013-03-24 17:48:00,
2013-03-24 13:54:00,40.8,24.5,29.75,SE,134,1.0,3.0,52,0.00,,,0.00,Wunderground v.1.15,2013-03-24 17:54:00,
2013-03-24 13:59:00,40.9,25.1,29.75,ESE,117,1.0,3.0,53,0.00,,,0.00,Wunderground v.1.15,2013-03-24 17:59:00,
2013-03-24 14:05:00,41.1,24.8,29.75,SE,142,1.0,3.0,52,0.00,,,0.00,Wunderground v.1.15,2013-03-24 18:05:00,
2013-03-24 14:10:00,41.3,24.5,29.75,SE,126,1.0,2.0,51,0.00,,,0.00,Wunderground v.1.15,2013-03-24 18:10:00,
2013-03-24 14:15:00,41.4,23.6,29.75,ENE,71,2.0,4.0,49,0.00,,,0.00,Wunderground v.1.15,2013-03-24 18:15:00,
2013-03-24 14:22:00,41.6,24.3,29.75,East,81,1.0,2.0,50,0.00,,,0.00,Wunderground v.1.15,2013-03-24 18:22:00,
2013-03-24 14:27:00,41.6,24.3,29.74,East,86,1.0,4.0,50,0.00,,,0.00,Wunderground v.1.15,2013-03-24 18:27:00,
2013-03-24 14:32:00,42.0,24.2,29.74,ESE,118,1.0,3.0,49,0.00,,,0.00,Wunderground v.1.15,2013-03-24 18:32:00,
2013-03-24 14:38:00,42.4,25.5,29.74,ESE,123,1.0,4.0,51,0.00,,,0.00,Wunderground v.1.15,2013-03-24 18:38:00,
2013-03-24 14:43:00,43.2,25.3,29.73,ENE,71,1.0,3.0,49,0.00,,,0.00,Wunderground v.1.15,2013-03-24 18:43:00,
2013-03-24 14:49:00,43.9,24.4,29.73,NE,51,1.0,6.0,46,0.00,,,0.00,Wunderground v.1.15,2013-03-24 18:49:00,
2013-03-24 14:54:00,43.7,25.3,29.73,SE,131,2.0,6.0,48,0.00,,,0.00,Wunderground v.1.15,2013-03-24 18:54:00,
2013-03-24 15:00:00,44.3,24.8,29.73,ESE,120,2.0,2.0,46,0.00,,,0.00,Wunderground v.1.15,2013-03-24 19:00:00,
2013-03-24 15:06:00,45.2,24.6,29.73,North,360,1.0,3.0,44,0.00,,,0.00,Wunderground v.1.15,2013-03-24 19:06:00,
2013-03-24 15:12:00,45.5,25.9,29.72,SE,128,1.0,4.0,46,0.00,,,0.00,Wunderground v.1.15,2013-03-24 19:12:00,
2013-03-24 15:17:00,45.4,24.7,29.73,SE,133,2.0,4.0,44,0.00,,,0.00,Wunderground v.1.15,2013-03-24 19:17:00,
2013-03-24 15:23:00,44.9,23.7,29.73,ESE,104,2.0,3.0,43,0.00,,,0.00,Wunderground v.1.15,2013-03-24 19:23:00,
2013-03-24 15:28:00,44.5,25.0,29.72,SSE,167,2.0,3.0,46,0.00,,,0.00,Wunderground v.1.15,2013-03-24 19:28:00,
2013-03-24 15:34:00,44.6,25.1,29.72,ESE,113,1.0,2.0,46,0.00,,,0.00,Wunderground v.1.15,2013-03-24 19:34:00,
2013-03-24 15:40:00,44.5,23.4,29.72,SE,137,1.0,5.0,43,0.00,,,0.00,Wunderground v.1.15,2013-03-24 19:40:00,
2013-03-24 15:45:00,44.3,23.7,29.71,ESE,111,2.0,5.0,44,0.00,,,0.00,Wunderground v.1.15,2013-03-24 19:45:00,
2013-03-24 15:50:00,44.2,24.7,29.71,ESE,111,1.0,1.0,46,0.00,,,0.00,Wunderground v.1.15,2013-03-24 19:50:00,
2013-03-24 15:56:00,44.1,24.1,29.71,SE,128,1.0,2.0,45,0.00,,,0.00,Wunderground v.1.15,2013-03-24 19:56:00,
2013-03-24 16:02:00,43.9,23.9,29.70,East,93,2.0,2.0,45,0.00,,,0.00,Wunderground v.1.15,2013-03-24 20:02:00,
2013-03-24 16:07:00,44.0,24.0,29.70,ESE,121,1.0,4.0,45,0.00,,,0.00,Wunderground v.1.15,2013-03-24 20:07:00,
2013-03-24 16:13:00,44.2,24.7,29.70,NE,45,1.0,3.0,46,0.00,,,0.00,Wunderground v.1.15,2013-03-24 20:13:00,
2013-03-24 16:19:00,44.3,23.7,29.69,North,5,1.0,4.0,44,0.00,,,0.00,Wunderground v.1.15,2013-03-24 20:19:00,
2013-03-24 16:24:00,44.2,24.2,29.69,NE,42,2.0,5.0,45,0.00,,,0.00,Wunderground v.1.15,2013-03-24 20:24:00,
2013-03-24 16:30:00,44.2,24.2,29.69,SE,138,2.0,2.0,45,0.00,,,0.00,Wunderground v.1.15,2013-03-24 20:30:00,
2013-03-24 16:35:00,44.1,24.1,29.68,SE,145,2.0,6.0,45,0.00,,,0.00,Wunderground v.1.15,2013-03-24 20:35:00,
2013-03-24 16:42:00,43.8,23.8,29.68,SE,128,2.0,2.0,45,0.00,,,0.00,Wunderground v.1.15,2013-03-24 20:42:00,
2013-03-24 16:47:00,43.7,24.2,29.68,ENE,71,2.0,3.0,46,0.00,,,0.00,Wunderground v.1.15,2013-03-24 20:47:00,
2013-03-24 16:53:00,43.6,23.6,29.67,WSW,248,1.0,2.0,45,0.00,,,0.00,Wunderground v.1.15,2013-03-24 20:53:00,
2013-03-24 16:58:00,43.7,24.2,29.67,NE,53,1.0,2.0,46,0.00,,,0.00,Wunderground v.1.15,2013-03-24 20:58:00,
2013-03-24 17:03:00,43.8,23.3,29.67,East,98,1.0,6.0,44,0.00,,,0.00,Wunderground v.1.15,2013-03-24 21:03:00,
2013-03-24 17:09:00,43.7,23.7,29.67,ESE,116,2.0,6.0,45,0.00,,,0.00,Wunderground v.1.15,2013-03-24 21:09:00,
2013-03-24 17:14:00,43.8,23.3,29.67,ESE,115,2.0,7.0,44,0.00,,,0.00,Wunderground v.1.15,2013-03-24 21:14:00,
2013-03-24 17:20:00,43.6,23.1,29.66,SSE,156,3.0,3.0,44,0.00,,,0.00,Wunderground v.1.15,2013-03-24 21:20:00,
2013-03-24 17:25:00,43.6,23.6,29.67,East,88,2.0,3.0,45,0.00,,,0.00,Wunderground v.1.15,2013-03-24 21:25:00,
2013-03-24 17:30:00,43.6,23.1,29.67,SE,125,1.0,4.0,44,0.00,,,0.00,Wunderground v.1.15,2013-03-24 21:30:00,
2013-03-24 17:35:00,43.4,23.4,29.66,SE,131,2.0,5.0,45,0.00,,,0.00,Wunderground v.1.15,2013-03-24 21:35:00,
2013-03-24 17:42:00,43.1,23.7,29.66,SE,131,2.0,3.0,46,0.00,,,0.00,Wunderground v.1.15,2013-03-24 21:42:00,
2013-03-24 17:47:00,43.0,23.6,29.66,NE,42,2.0,3.0,46,0.00,,,0.00,Wunderground v.1.15,2013-03-24 21:47:00,
2013-03-24 17:53:00,42.8,23.4,29.66,ENE,61,2.0,7.0,46,0.00,,,0.00,Wunderground v.1.15,2013-03-24 21:53:00,
2013-03-24 17:58:00,42.7,23.8,29.66,ESE,104,2.0,7.0,47,0.00,,,0.00,Wunderground v.1.15,2013-03-24 21:58:00,
2013-03-24 18:04:00,42.5,23.7,29.65,SE,145,2.0,5.0,47,0.00,,,0.00,Wunderground v.1.15,2013-03-24 22:04:00,
2013-03-24 18:09:00,42.4,23.6,29.65,NNW,337,2.0,7.0,47,0.00,,,0.00,Wunderground v.1.15,2013-03-24 22:09:00,
2013-03-24 18:14:00,42.3,24.0,29.64,East,84,2.0,2.0,48,0.00,,,0.00,Wunderground v.1.15,2013-03-24 22:14:00,
2013-03-24 18:20:00,42.2,23.9,29.64,SE,124,1.0,1.0,48,0.00,,,0.00,Wunderground v.1.15,2013-03-24 22:20:00,
2013-03-24 18:26:00,42.2,24.4,29.63,ESE,115,1.0,5.0,49,0.00,,,0.00,Wunderground v.1.15,2013-03-24 22:26:00,
2013-03-24 18:32:00,42.1,23.8,29.63,ENE,62,1.0,4.0,48,0.00,,,0.00,Wunderground v.1.15,2013-03-24 22:32:00,
2013-03-24 18:37:00,42.1,24.8,29.63,SE,126,1.0,4.0,50,0.00,,,0.00,Wunderground v.1.15,2013-03-24 22:37:00,
2013-03-24 18:42:00,42.0,24.2,29.63,NE,49,1.0,3.0,49,0.00,,,0.00,Wunderground v.1.15,2013-03-24 22:42:00,
2013-03-24 18:48:00,41.8,24.0,29.63,ESE,117,2.0,3.0,49,0.00,,,0.00,Wunderground v.1.15,2013-03-24 22:48:00,
2013-03-24 18:53:00,41.8,24.0,29.63,NE,45,2.0,3.0,49,0.00,,,0.00,Wunderground v.1.15,2013-03-24 22:53:00,
2013-03-24 18:59:00,41.6,23.8,29.63,SE,142,2.0,9.0,49,0.00,,,0.00,Wunderground v.1.15,2013-03-24 22:59:00,
2013-03-24 19:04:00,41.5,24.2,29.63,NNE,31,2.0,2.0,50,0.00,,,0.00,Wunderground v.1.15,2013-03-24 23:04:00,
2013-03-24 19:10:00,41.3,24.0,29.63,ENE,71,1.0,1.0,50,0.00,,,0.00,Wunderground v.1.15,2013-03-24 23:10:00,
2013-03-24 19:15:00,41.2,23.9,29.63,SE,146,2.0,4.0,50,0.00,,,0.00,Wunderground v.1.15,2013-03-24 23:15:00,
2013-03-24 19:22:00,40.9,23.7,29.63,ESE,110,4.0,6.0,50,0.00,,,0.00,Wunderground v.1.15,2013-03-24 23:22:00,
2013-03-24 19:27:00,40.8,23.6,29.63,SE,126,3.0,6.0,50,0.00,,,0.00,Wunderground v.1.15,2013-03-24 23:27:00,
2013-03-24 19:33:00,40.6,23.4,29.63,East,98,2.0,6.0,50,0.00,,,0.00,Wunderground v.1.15,2013-03-24 23:33:00,
2013-03-24 19:38:00,40.5,23.8,29.63,SSE,166,2.0,6.0,51,0.00,,,0.00,Wunderground v.1.15,2013-03-24 23:38:00,
2013-03-24 19:43:00,40.3,24.1,29.63,SE,140,1.0,3.0,52,0.00,,,0.00,Wunderground v.1.15,2013-03-24 23:43:00,
2013-03-24 19:49:00,40.1,23.9,29.64,ESE,109,1.0,3.0,52,0.00,,,0.00,Wunderground v.1.15,2013-03-24 23:49:00,
2013-03-24 19:55:00,39.7,24.4,29.63,SE,129,3.0,5.0,54,0.00,,,0.00,Wunderground v.1.15,2013-03-24 23:55:00,
2013-03-24 20:00:00,39.3,25.7,29.64,SE,140,3.0,3.0,58,0.00,,,0.00,Wunderground v.1.15,2013-03-25 00:00:00,
2013-03-24 20:06:00,38.6,27.1,29.64,ESE,117,3.0,5.0,63,0.00,,,0.00,Wunderground v.1.15,2013-03-25 00:06:00,
2013-03-24 20:12:00,37.6,28.3,29.64,ESE,116,3.0,5.0,69,0.00,,,0.00,Wunderground v.1.15,2013-03-25 00:12:00,
2013-03-24 20:18:00,36.7,28.9,29.63,ESE,116,3.0,6.0,73,0.00,,,0.00,Wunderground v.1.15,2013-03-25 00:18:00,
2013-03-24 20:23:00,36.0,29.2,29.63,NE,52,2.0,4.0,76,0.00,,,0.00,Wunderground v.1.15,2013-03-25 00:23:00,
2013-03-24 20:28:00,35.6,29.4,29.63,ENE,78,2.0,4.0,78,0.00,,,0.00,Wunderground v.1.15,2013-03-25 00:28:00,
2013-03-24 20:34:00,35.2,29.6,29.63,SE,138,1.0,3.0,80,0.00,,,0.00,Wunderground v.1.15,2013-03-25 00:34:00,
2013-03-24 20:39:00,34.8,29.9,29.63,SSW,202,1.0,4.0,82,0.00,,,0.00,Wunderground v.1.15,2013-03-25 00:39:00,
2013-03-24 20:45:00,34.4,30.1,29.63,NE,42,1.0,4.0,84,0.00,,,0.00,Wunderground v.1.15,2013-03-25 00:45:00,
2013-03-24 20:50:00,34.1,30.1,29.63,ESE,105,1.0,1.0,85,0.00,,,0.00,Wunderground v.1.15,2013-03-25 00:50:00,
2013-03-24 20:57:00,33.9,29.9,29.63,SE,143,1.0,2.0,85,0.00,,,0.00,Wunderground v.1.15,2013-03-25 00:57:00,
2013-03-24 21:02:00,33.9,30.2,29.63,SE,142,0.0,0.0,86,0.00,,,0.00,Wunderground v.1.15,2013-03-25 01:02:00,
2013-03-24 21:08:00,33.7,30.0,29.63,East,100,0.0,3.0,86,0.00,,,0.00,Wunderground v.1.15,2013-03-25 01:08:00,
2013-03-24 21:13:00,33.7,30.0,29.63,ESE,102,0.0,2.0,86,0.00,,,0.00,Wunderground v.1.15,2013-03-25 01:13:00,
2013-03-24 21:19:00,33.7,30.0,29.63,SE,132,0.0,2.0,86,0.00,,,0.00,Wunderground v.1.15,2013-03-25 01:19:00,
2013-03-24 21:24:00,33.7,30.0,29.63,ENE,78,0.0,1.0,86,0.00,,,0.00,Wunderground v.1.15,2013-03-25 01:24:00,
2013-03-24 21:30:00,33.7,30.0,29.63,East,92,0.0,2.0,86,0.00,,,0.00,Wunderground v.1.15,2013-03-25 01:30:00,
2013-03-24 21:36:00,33.7,30.0,29.62,SE,133,1.0,2.0,86,0.00,,,0.00,Wunderground v.1.15,2013-03-25 01:36:00,
2013-03-24 21:42:00,33.8,29.8,29.62,East,94,1.0,1.0,85,0.00,,,0.00,Wunderground v.1.15,2013-03-25 01:42:00,
2013-03-24 21:47:00,33.8,29.8,29.61,NNE,28,0.0,3.0,85,0.00,,,0.00,Wunderground v.1.15,2013-03-25 01:47:00,
2013-03-24 21:52:00,33.8,29.8,29.61,ESE,111,1.0,2.0,85,0.00,,,0.00,Wunderground v.1.15,2013-03-25 01:52:00,
2013-03-24 21:58:00,33.9,29.9,29.61,North,351,1.0,2.0,85,0.00,,,0.00,Wunderground v.1.15,2013-03-25 01:58:00,
2013-03-24 22:03:00,34.0,29.7,29.61,NNE,20,1.0,3.0,84,0.00,,,0.00,Wunderground v.1.15,2013-03-25 02:03:00,
2013-03-24 22:08:00,34.1,29.8,29.61,East,95,1.0,3.0,84,0.00,,,0.00,Wunderground v.1.15,2013-03-25 02:08:00,
2013-03-24 22:14:00,34.1,29.8,29.60,East,101,1.0,4.0,84,0.00,,,0.00,Wunderground v.1.15,2013-03-25 02:14:00,
2013-03-24 22:19:00,34.1,29.8,29.60,NNE,24,1.0,4.0,84,0.00,,,0.00,Wunderground v.1.15,2013-03-25 02:19:00,
2013-03-24 22:25:00,34.1,29.8,29.60,SE,143,2.0,5.0,84,0.00,,,0.00,Wunderground v.1.15,2013-03-25 02:25:00,
2013-03-24 22:32:00,34.2,29.9,29.59,SE,126,2.0,4.0,84,0.00,,,0.00,Wunderground v.1.15,2013-03-25 02:32:00,
2013-03-24 22:37:00,34.1,29.8,29.59,ESE,122,2.0,4.0,84,0.00,,,0.00,Wunderground v.1.15,2013-03-25 02:37:00,
2013-03-24 22:43:00,34.1,29.8,29.59,East,99,2.0,3.0,84,0.00,,,0.00,Wunderground v.1.15,2013-03-25 02:43:00,
2013-03-24 22:48:00,34.2,29.9,29.59,South,183,2.0,8.0,84,0.00,,,0.00,Wunderground v.1.15,2013-03-25 02:48:00,
2013-03-24 22:53:00,34.2,29.9,29.59,East,95,2.0,3.0,84,0.00,,,0.00,Wunderground v.1.15,2013-03-25 02:53:00,
2013-03-24 22:58:00,34.1,29.8,29.58,NNE,16,2.0,3.0,84,0.00,,,0.00,Wunderground v.1.15,2013-03-25 02:58:00,
2013-03-24 23:04:00,34.1,29.8,29.58,East,82,1.0,5.0,84,0.00,,,0.00,Wunderground v.1.15,2013-03-25 03:04:00,
2013-03-24 23:10:00,34.1,29.8,29.58,NNE,27,2.0,2.0,84,0.00,,,0.00,Wunderground v.1.15,2013-03-25 03:10:00,
2013-03-24 23:15:00,34.2,29.6,29.58,NE,43,1.0,3.0,83,0.00,,,0.00,Wunderground v.1.15,2013-03-25 03:15:00,
2013-03-24 23:21:00,34.2,29.6,29.57,SSW,193,1.0,2.0,83,0.00,,,0.00,Wunderground v.1.15,2013-03-25 03:21:00,
2013-03-24 23:27:00,34.2,29.6,29.58,ESE,104,1.0,2.0,83,0.00,,,0.00,Wunderground v.1.15,2013-03-25 03:27:00,
2013-03-24 23:32:00,34.2,29.3,29.57,ESE,107,1.0,4.0,82,0.00,,,0.00,Wunderground v.1.15,2013-03-25 03:32:00,
2013-03-24 23:38:00,34.3,29.4,29.57,ESE,103,2.0,5.0,82,0.00,,,0.00,Wunderground v.1.15,2013-03-25 03:38:00,
2013-03-24 23:44:00,34.3,29.4,29.57,NNE,15,2.0,3.0,82,0.00,,,0.00,Wunderground v.1.15,2013-03-25 03:44:00,
2013-03-24 23:50:00,34.3,29.4,29.57,SSE,147,2.0,2.0,82,0.00,,,0.00,Wunderground v.1.15,2013-03-25 03:50:00,
2013-03-24 23:55:00,34.3,29.4,29.57,East,98,2.0,2.0,82,0.00,,,0.00,Wunderground v.1.15,2013-03-25 03:55:00,